[[{"header":{"parameterUnit":"m.s-1","parameterCategory":1,"la1":30.2992,"la2":30.254,"lo1":-89.0895,"lo2":-89.0443,"dy":0.0025,"dx":0.0025,"nx":19,"ny":19,"refTime":"2026-05-11T09:00:00:Z","depth":0,"parameterNumber":2,"parameterNumberName":"U-component_of_WINDS"},"data":[0,0,0,-1.1116,-1.1117,-1.1131,-1.1131,-1.1161,-1.1162,0,0,0,0,0,0,0,0,0,0,0,-1.1118,-1.1119,-1.1116,-1.1117,-1.1131,-1.1131,-1.1161,-1.1162,0,0,0,0,0,0,0,0,0,0,0,-1.1118,-1.1119,-1.1119,-1.1117,-1.1131,-1.1131,-1.1161,-1.1146,0,0,0,0,0,0,0,0,0,0,-1.113,-1.1138,-1.1119,-1.1119,-1.1117,-1.1131,-1.1131,-1.1145,-1.1147,-1.116,0,-1.1172,0,-1.1167,-1.1164,-1.1165,0,0,0,-1.1112,-1.1137,-1.1135,-1.1119,-1.1117,-1.1131,-1.1123,-1.1146,-1.1148,-1.1162,-1.1172,-1.1173,-1.1168,-1.1165,-1.1165,-1.125,-1.1251,0,0,-1.1111,-1.1125,-1.1133,-1.1137,-1.1134,-1.1123,-1.1124,-1.1147,-1.1159,-1.1172,-1.1173,-1.1168,-1.1165,-1.1165,-1.125,-1.1251,0,0,0,-1.1112,-1.1124,-1.1121,-1.1136,-1.1137,-1.1123,-1.1125,-1.1158,-1.1156,-1.1174,-1.1169,-1.1165,-1.1166,-1.1249,-1.125,-1.1294,0,0,0,-1.1111,-1.1125,-1.1121,-1.113,-1.1137,-1.1148,-1.1135,-1.1155,-1.1157,-1.1168,-1.1165,-1.1166,-1.1248,-1.125,-1.1291,-1.1313,0,0,0,-1.1115,-1.1125,-1.1129,-1.113,-1.1137,-1.1147,-1.1146,-1.1155,-1.1154,-1.1165,-1.1166,-1.1248,-1.1249,-1.1289,-1.1309,-1.134,0,0,0,-1.1123,-1.1168,-1.113,-1.1178,-1.1137,-1.1174,-1.1146,-1.1173,-1.1187,-1.1165,-1.1249,-1.125,-1.1288,-1.1306,-1.1337,-1.1369,-1.1383,0,0,-1.1187,-1.1176,-1.1203,-1.117,-1.1217,-1.117,-1.1224,-1.1225,-1.1213,-1.1239,-1.1241,-1.1292,-1.1309,-1.1339,-1.1456,-1.1468,0,0,0,-1.1228,-1.1248,-1.1257,-1.1271,-1.1272,-1.1275,-1.1266,-1.1267,-1.1287,-1.1229,-1.1311,-1.132,-1.1338,-1.1352,-1.1362,-1.1377,-1.1257,-1.1257,-1.1257,-1.1338,-1.1321,-1.1365,-1.135,-1.1364,-1.1354,-1.1364,-1.1363,-1.1342,-1.1362,-1.1369,-1.1442,-1.146,-1.1467,-1.1483,-1.1384,-1.1384,-1.1384,-1.1384,-1.1431,-1.1456,-1.1427,-1.1459,-1.1442,-1.1469,-1.1461,-1.1445,-1.1469,-1.1435,-1.145,-1.1415,-1.148,-1.1493,-1.1387,-1.1387,-1.1386,-1.1386,-1.1386,-1.1502,-1.1511,-1.151,-1.1529,-1.1545,-1.1529,-1.1552,-1.1535,-1.1519,-1.1533,-1.154,-1.154,-1.1538,-1.1538,-1.1538,-1.1538,-1.1538,-1.1538,-1.1539,-1.1577,-1.1574,-1.1596,-1.1601,-1.1608,-1.1615,-1.1605,-1.1612,-1.1615,-1.16,-1.16,-1.1578,-1.1489,-1.1468,-1.1543,-1.1542,-1.1541,-1.1541,-1.1541,-1.1679,-1.1653,-1.1687,-1.1694,-1.1699,-1.1717,-1.1694,-1.1708,-1.1711,-1.1724,-1.1698,-1.1635,-1.1622,-1.1615,-1.1597,-1.1701,-1.1701,-1.1701,-1.1701,-1.1741,-1.1732,-1.1763,-1.1775,-1.1785,-1.1768,-1.1808,-1.1801,-1.179,-1.1791,-1.1773,-1.1747,-1.174,-1.1732,-1.1722,-1.1705,-1.1834,-1.1834,-1.1834,-1.1803,-1.1795,-1.1832,-1.182,-1.1822,-1.1825,-1.1862,-1.1878,-1.186,-1.184,-1.1791,-1.1786,-1.1744,-1.1732,-1.1712,-1.1696,-1.1665,0,0]},{"header":{"parameterUnit":"m.s-1","parameterCategory":1,"la1":30.2992,"la2":30.254,"lo1":-89.0895,"lo2":-89.0443,"dy":0.0025,"dx":0.0025,"nx":19,"ny":19,"refTime":"2026-05-11T09:00:00:Z","depth":0,"parameterNumber":3,"parameterNumberName":"V-component_of_WINDS"},"data":[0,0,0,2.5818,2.5818,2.5811,2.5811,2.5815,2.5815,0,0,0,0,0,0,0,0,0,0,0,2.5828,2.5829,2.5818,2.5818,2.5811,2.5811,2.5815,2.5815,0,0,0,0,0,0,0,0,0,0,0,2.5828,2.5829,2.5829,2.5818,2.5811,2.581,2.5814,2.5815,0,0,0,0,0,0,0,0,0,0,2.582,2.5838,2.5829,2.5829,2.5818,2.5811,2.581,2.5815,2.5815,2.5824,0,2.5834,0,2.5825,2.5816,2.5816,0,0,0,2.5811,2.5838,2.5828,2.5829,2.5818,2.5811,2.5812,2.5815,2.5815,2.5824,2.5834,2.5834,2.5825,2.5816,2.5816,2.5888,2.5889,0,0,2.5812,2.5832,2.5828,2.5829,2.5832,2.5812,2.5812,2.5815,2.5827,2.5834,2.5834,2.5825,2.5816,2.5816,2.5887,2.5888,0,0,0,2.5817,2.5832,2.5822,2.5829,2.5827,2.5812,2.5812,2.5827,2.5822,2.5834,2.5825,2.5816,2.5816,2.5887,2.5888,2.5939,0,0,0,2.5817,2.5836,2.5823,2.5835,2.5827,2.5827,2.5824,2.5822,2.5821,2.5825,2.5816,2.5817,2.5886,2.5887,2.5936,2.596,0,0,0,2.5826,2.5836,2.5838,2.5836,2.5834,2.5826,2.5821,2.5821,2.5816,2.5816,2.5817,2.5885,2.5887,2.5933,2.5955,2.5984,0,0,0,2.5841,2.5884,2.584,2.5884,2.5834,2.5858,2.5821,2.5838,2.5844,2.5816,2.5886,2.5888,2.5932,2.5952,2.5981,2.6012,2.6026,0,0,2.5907,2.5893,2.5918,2.5877,2.5915,2.5858,2.5902,2.5889,2.587,2.5883,2.5884,2.5937,2.5955,2.5983,2.6102,2.6114,0,0,0,2.5945,2.5963,2.5968,2.5975,2.5966,2.5959,2.5936,2.5931,2.5941,2.5881,2.5954,2.5965,2.598,2.5994,2.6004,2.6016,2.5895,2.5895,2.5894,2.6067,2.6041,2.6079,2.6052,2.6059,2.6035,2.6037,2.6026,2.5998,2.6016,2.6019,2.6094,2.6111,2.6118,2.6131,2.6033,2.6033,2.6034,2.6034,2.616,2.6181,2.6142,2.6166,2.6137,2.6156,2.6134,2.6113,2.6127,2.609,2.6102,2.6064,2.6132,2.6142,2.6037,2.6037,2.6036,2.6036,2.6036,2.6237,2.6242,2.6235,2.6241,2.6249,2.6219,2.6234,2.6207,2.6183,2.6195,2.6196,2.6195,2.619,2.6197,2.6198,2.6198,2.6198,2.6198,2.6198,2.632,2.631,2.6325,2.6318,2.6318,2.6315,2.6291,2.629,2.6282,2.6262,2.6262,2.6231,2.6144,2.6122,2.6202,2.6202,2.6201,2.6201,2.6201,2.6424,2.6396,2.642,2.642,2.6409,2.6418,2.6384,2.6384,2.638,2.6387,2.6354,2.6294,2.6278,2.627,2.6251,2.636,2.636,2.636,2.636,2.6488,2.6477,2.6495,2.6497,2.6496,2.6468,2.6495,2.6475,2.6451,2.6446,2.6427,2.6401,2.6394,2.6382,2.6371,2.6354,2.6486,2.6486,2.6486,2.655,2.6538,2.6566,2.6543,2.6532,2.6523,2.6547,2.655,2.6517,2.649,2.6442,2.6437,2.6394,2.6382,2.6355,2.6339,2.6307,0,0]}]]